Meteo Giornale » Osservazioni meteo Cina » Nanning
ore: 04:00 - Osservazioni Meteo Nanning
Lat. 22° 49' N Lon. 108° 21' E Alt. 73 metri s.l.m.
27 °C
Sereno
Temp. 24 Ore
26 °C
32 °C
Nord
7.2 Km/h
Dew point 21 °C
Umidità 69 %
Visibilità 10 Km
Il sole sorge alle ore 06:28
Il sole tramonta alle ore 19:04
| Data e Ora | Cielo e Fenomeni | T °C | DP °C | Um. % | Pres. hPa | Vis. km | Vento km/h | |
|---|---|---|---|---|---|---|---|---|
| Oggi h: 04:00 | Sereno | 27 | 21 | 69 | 1003 | 10 | N 7.2 | |
| Oggi h: 03:00 | Sereno | 26 | 21 | 73 | 1003 | 10 | N 7.2 | |
| Oggi h: 02:00 | Sereno | 26 | 22 | 78 | 1004 | 10 | N 7.2 | |
| Oggi h: 01:00 | Sereno | 28 | 21 | 65 | 1004 | 10 | N 7.2 | |
| Oggi h: 00:00 | Sereno | 28 | 22 | 69 | 1004 | 10 | N/NO 10.8 | |
| Ieri h: 23:00 | Sereno | 28 | 22 | 69 | 1004 | 10 | N 7.2 | |
| Ieri h: 22:00 | Sereno | 29 | 22 | 66 | 1003 | 10 | N 10.8 | |
| Ieri h: 21:00 | Sereno | 29 | 22 | 66 | 1003 | 10 | N/NE 10.8 | |
| Ieri h: 20:00 | Sereno | 29 | 22 | 66 | 1002 | 10 | N 7.2 | |
| Ieri h: 19:00 | Sereno | 29 | 23 | 70 | 1002 | 10 | N 7.2 | |
| Ieri h: 18:00 | Sereno | 29 | 23 | 70 | 1001 | 10 | N 14.4 | |
| Ieri h: 17:00 | Sereno | 30 | 23 | 66 | 1001 | 10 | N 14.4 | |
| Ieri h: 16:00 | Sereno | 30 | 23 | 66 | 1001 | 10 | N 14.4 | |
| Ieri h: 15:00 | Sereno | 30 | 24 | 70 | 1002 | 10 | N 14.4 | |
| Ieri h: 14:00 | Sereno | 30 | 22 | 62 | 1002 | 10 | N 18 | |
| Ieri h: 13:00 | Sereno | 31 | 22 | 58 | 1002 | 10 | N 28.8 | |
| Ieri h: 12:00 | Sereno | 32 | 23 | 59 | 1003 | 10 | N 28.8 | |
| Ieri h: 11:00 | Sereno | 31 | 23 | 62 | 1003 | 10 | N 25.2 | |
| Ieri h: 10:00 | Sereno | 30 | 23 | 66 | 1003 | 10 | N 18 | |
| Ieri h: 09:00 | Sereno | 30 | 23 | 66 | 1003 | 10 | N 10.8 | |
| Ieri h: 08:00 | Sereno | 28 | 22 | 69 | 1002 | 10 | N 10.8 | |
| Ieri h: 07:00 | Sereno | 26 | 22 | 78 | 1002 | 10 | N 7.2 | |
| Ieri h: 06:00 | Sereno | 27 | 22 | 74 | 1001 | 10 | N/NE 10.8 | |
| Ieri h: 05:00 | Sereno | 27 | 21 | 69 | 1001 | 10 | N 14.4 | |



